Location: Hobi?a Gr?di?te
(45.4833°N, 22.7833°E)
Time: 10:22:31
(UTC+00:00)

ATLAS 2AS CENTAUR R/B - Pass Details

Date: 28 January 2023
Orbit: 986 x 1226 km, 63.7° (Epoch: 30 March)

Event Time Altitude Azimuth Distance (km) Brightness Sun altitude
Rises 19:12:57 0° 317° (NW) 3,939 6.3 -39.0°
Reaches altitude 10° 19:15:53 10° 309° (NW) 2,939 5.6 -39.5°
Enters shadow 19:21:11 35° 262° (W) 1,644 3.9 -40.4°
